Weather reports worldwide

Advertisment
Gainesville, ga, United States of America (2074504): temperature & dewpoint: 22.01.2020 03:00:00 - 28.01.2020 03:00:00 (EST)Gainesville, ga, United States of America (2074504): wind speed: 22.01.2020 03:00:00 - 28.01.2020 03:00:00 (EST)Gainesville, ga, United States of America (2074504): wind direction: 22.01.2020 03:00:00 - 28.01.2020 03:00:00 (EST)Gainesville, ga, United States of America (2074504): reduced air pressure: 22.01.2020 03:00:00 - 28.01.2020 03:00:00 (EST)Gainesville, ga, United States of America (2074504): visibility: 22.01.2020 03:00:00 - 28.01.2020 03:00:00 (EST)Gainesville, ga, United States of America (2074504): precipitation: 22.01.2020 03:00:00 - 28.01.2020 03:00:00 (EST)
Date & Time tt [°C] td [°C] ff [km/h] ff [kn] dd ppp [hPa] vv [km] rr [mm]
28.01.2020 03:00:00 3,3 1,7 5 3 W 1015,0 16 -
28.01.2020 02:00:00 3,3 2,2 9 5 W 1014,9 16 -
28.01.2020 01:00:00 4,4 2,8 9 5 WNW 1014,6 16 -
28.01.2020 00:00:00 5,0 3,9 9 5 W 1015,1 16 -
27.01.2020 23:00:00 5,6 5,0 11 6 WNW 1015,1 16 -
27.01.2020 22:00:00 6,1 5,6 13 7 W 1014,7 16 -
27.01.2020 21:00:00 6,7 5,6 11 6 W 1014,3 16 -
27.01.2020 20:00:00 6,7 5,6 11 6 W 1014,0 16 -
27.01.2020 19:00:00 7,2 5,6 11 6 W 1013,6 16 -
27.01.2020 18:00:00 8,3 5,6 11 6 WNW 1013,0 16 -
27.01.2020 17:00:00 8,9 5,6 21 11 WNW 1012,7 16 -
27.01.2020 16:00:00 9,4 6,1 18 10 W 1012,4 16 -
27.01.2020 15:00:00 10,0 6,7 18 10 W 1012,0 16 -
27.01.2020 14:00:00 8,9 6,7 21 11 W 1012,4 16 -
27.01.2020 13:00:00 9,4 7,2 21 11 W 1013,0 16 -
27.01.2020 12:00:00 7,2 6,7 13 7 W 1014,2 16 -
27.01.2020 11:00:00 6,7 6,1 15 8 WNW 1014,6 10 0,0
27.01.2020 10:00:00 6,7 6,1 13 7 W 1014,5 11 0,0
27.01.2020 09:00:00 6,1 5,6 11 6 WSW 1014,5 16 -
27.01.2020 08:00:00 5,6 5,0 11 6 W 1014,1 16 -
27.01.2020 07:00:00 5,6 5,0 9 5 W 1013,6 16 -
27.01.2020 06:00:00 5,6 5,0 9 5 W 1013,8 16 0,3
27.01.2020 05:00:00 5,6 5,6 5 3 W 1013,8 15 0,3
27.01.2020 04:00:00 6,7 3,3 9 5 WNW 1014,0 16 0,0
27.01.2020 03:00:00 6,7 2,8 9 5 WNW 1013,9 16 -
27.01.2020 02:00:00 6,7 2,2 9 5 W 1013,9 16 -
27.01.2020 01:00:00 6,7 2,2 9 5 W 1014,6 16 -
27.01.2020 00:00:00 6,7 1,7 9 5 WSW 1015,3 16 -
26.01.2020 23:00:00 6,7 1,7 11 6 W 1015,8 16 -
26.01.2020 22:00:00 6,7 1,7 15 8 W 1016,2 16 -
26.01.2020 21:00:00 7,2 0,6 15 8 W 1016,4 16 -
26.01.2020 20:00:00 7,8 0,0 15 8 WSW 1016,2 16 -
26.01.2020 19:00:00 8,3 0,6 11 6 WSW 1016,4 16 -
26.01.2020 18:00:00 8,9 -0,6 11 6 W 1016,1 16 0,0
26.01.2020 17:00:00 10,0 -2,2 9 5 W 1016,3 16 -
26.01.2020 16:00:00 11,1 -3,3 11 6 WNW 1016,4 16 -
26.01.2020 15:00:00 11,1 -2,2 16 9 W 1016,4 16 -
26.01.2020 14:00:00 11,1 -3,3 13 7 W 1017,0 16 -
26.01.2020 13:00:00 10,6 -1,7 16 9 WNW 1017,7 16 -
26.01.2020 12:00:00 8,3 -1,1 15 8 W 1019,0 16 -
26.01.2020 11:00:00 6,1 -2,2 11 6 W 1019,8 16 -
26.01.2020 10:00:00 3,9 -1,7 15 8 WNW 1019,5 16 -
26.01.2020 09:00:00 2,2 -1,7 13 7 W 1019,2 16 -
26.01.2020 08:00:00 0,0 -1,7 13 7 W 1018,8 16 -
26.01.2020 07:00:00 0,6 -1,7 15 8 W 1018,3 16 -
26.01.2020 06:00:00 0,6 -1,1 15 8 NW 1017,4 16 -
26.01.2020 05:00:00 0,6 -1,1 13 7 W 1017,3 16 -
26.01.2020 04:00:00 1,1 -1,1 15 8 W 1017,9 16 -
26.01.2020 03:00:00 1,7 -0,6 15 8 W 1018,3 16 -
26.01.2020 02:00:00 1,7 -0,6 15 8 W 1018,3 16 -
26.01.2020 01:00:00 2,2 -0,6 18 10 W 1018,0 16 -
26.01.2020 00:00:00 2,8 -0,6 15 8 WNW 1018,4 16 -
25.01.2020 23:00:00 2,8 0,0 18 10 W 1018,6 16 -
25.01.2020 22:00:00 3,3 0,0 13 7 W 1018,6 16 -
25.01.2020 21:00:00 3,3 -1,1 9 5 W 1018,7 16 -
25.01.2020 20:00:00 3,9 -1,1 8 4 WNW 1018,3 16 -
25.01.2020 19:00:00 4,4 -1,1 13 7 NW 1017,8 16 -
25.01.2020 18:00:00 5,6 -1,1 15 8 WNW 1017,4 16 -
25.01.2020 17:00:00 7,2 -1,1 21 11 W 1017,1 16 -
25.01.2020 16:00:00 7,2 -0,6 16 9 W 1016,9 16 -
25.01.2020 15:00:00 7,2 -0,6 18 10 W 1017,1 16 -
25.01.2020 14:00:00 6,7 -0,6 24 13 WNW 1017,4 16 -
25.01.2020 13:00:00 6,1 -0,6 24 13 WNW 1017,9 16 -
25.01.2020 12:00:00 6,7 -0,6 26 14 WNW 1018,7 16 0,0
25.01.2020 11:00:00 5,6 -1,1 28 15 WNW 1018,7 16 0,0
25.01.2020 10:00:00 4,4 -0,6 21 11 WNW 1018,3 16 0,0
25.01.2020 09:00:00 3,3 -0,6 18 10 W 1017,6 15 0,0
25.01.2020 08:00:00 2,8 -0,6 16 9 WNW 1016,8 16 -
25.01.2020 07:00:00 3,3 0,6 15 8 WNW 1016,1 16 -
25.01.2020 06:00:00 3,9 2,2 15 8 W 1015,5 16 -
25.01.2020 05:00:00 4,4 2,8 16 9 W 1014,9 16 -
25.01.2020 04:00:00 4,4 3,9 16 9 W 1015,0 16 -
25.01.2020 03:00:00 4,4 3,9 16 9 W 1014,9 16 -
25.01.2020 02:00:00 3,9 3,9 11 6 WSW 1015,0 16 -
25.01.2020 01:00:00 4,4 4,4 9 5 W 1015,2 16 -
25.01.2020 00:00:00 5,6 5,6 13 7 WSW 1015,0 2,4 -
24.01.2020 23:00:00 5,0 5,0 5 3 W 1015,3 0,4 -
24.01.2020 22:00:00 5,0 5,0 0 0 N 1015,1 0,4 -
24.01.2020 21:00:00 6,1 6,1 9 5 NW 1015,3 0,4 -
24.01.2020 20:00:00 6,1 6,1 5 3 NW 1014,9 0,4 -
24.01.2020 19:00:00 6,7 6,7 5 3 W 1014,5 8 -
24.01.2020 18:00:00 7,8 7,8 9 5 W 1014,2 6 -
24.01.2020 17:00:00 7,8 7,8 0 0 N 1014,1 1,2 -
24.01.2020 16:00:00 7,2 7,2 0 0 N 1013,9 1,2 -
24.01.2020 15:00:00 7,2 7,2 5 3 E 1014,0 4,0 0,3
24.01.2020 14:00:00 6,7 6,7 0 0 N 1014,6 3,2 0,0
24.01.2020 13:00:00 6,1 6,1 11 6 E 1014,9 2,0 0,0
24.01.2020 12:00:00 5,6 5,6 11 6 E 1016,0 8 1,0
24.01.2020 11:00:00 5,0 5,0 15 8 ENE 1016,8 13 -
24.01.2020 10:00:00 4,4 4,4 13 7 ENE 1017,1 16 0,0
24.01.2020 09:00:00 3,9 3,9 11 6 ENE 1017,1 4,8 2,0
24.01.2020 08:00:00 3,9 3,9 8 4 E 1016,3 4,8 1,0
24.01.2020 07:00:00 3,3 3,3 18 10 E 1015,9 4,0 1,0
24.01.2020 06:00:00 3,3 3,3 21 11 E 1015,9 4,0 0,5
24.01.2020 05:00:00 3,3 3,3 28 15 E 1016,4 4,8 1,0
24.01.2020 04:00:00 3,3 3,3 18 10 E 1017,4 4,0 0,5
24.01.2020 03:00:00 3,3 3,3 24 13 E 1018,1 4,8 0,3
24.01.2020 02:00:00 2,8 2,8 24 13 E 1019,0 6 3,8
24.01.2020 01:00:00 3,3 2,8 18 10 ENE 1019,7 10 2,8
24.01.2020 00:00:00 3,3 2,2 16 9 ENE 1020,5 8 1,5
23.01.2020 23:00:00 3,9 1,1 18 10 E 1020,0 16 0,8
23.01.2020 22:00:00 5,0 1,1 24 13 E 1020,4 16 0,0
23.01.2020 21:00:00 5,0 -0,6 18 10 E 1020,7 16 -
23.01.2020 20:00:00 5,0 -0,6 21 11 E 1021,2 16 0,0
23.01.2020 19:00:00 5,6 -1,7 13 7 E 1021,3 16 0,0
23.01.2020 18:00:00 5,6 -2,2 11 6 E 1021,1 16 0,0
23.01.2020 17:00:00 6,7 -2,2 21 11 E 1021,3 16 0,0
23.01.2020 16:00:00 7,2 -5,0 15 8 ESE 1021,8 16 -
23.01.2020 15:00:00 7,8 -5,0 18 10 ESE 1021,9 16 -
23.01.2020 14:00:00 7,8 -5,6 16 9 E 1022,4 16 -
23.01.2020 13:00:00 7,2 -6,7 16 9 E 1023,8 16 -
23.01.2020 12:00:00 6,7 -8,3 24 13 ENE 1025,1 16 -
23.01.2020 11:00:00 6,1 -8,9 29 16 E 1026,1 16 -
23.01.2020 10:00:00 3,3 -8,3 26 14 E 1025,4 16 -
23.01.2020 09:00:00 2,8 -7,8 18 10 E 1026,3 16 0,0
23.01.2020 08:00:00 2,8 -8,3 15 8 ENE 1026,3 16 -
23.01.2020 07:00:00 2,2 -8,9 15 8 ENE 1026,4 16 -
23.01.2020 06:00:00 2,2 -8,9 15 8 ENE 1025,8 16 -
23.01.2020 05:00:00 1,7 -8,9 16 9 E 1024,9 16 -
23.01.2020 04:00:00 1,7 -8,3 16 9 ENE 1025,5 16 -
23.01.2020 03:00:00 2,2 -8,3 16 9 E 1026,0 16 -
23.01.2020 02:00:00 2,2 -8,3 18 10 E 1026,6 16 -
23.01.2020 01:00:00 2,8 -8,3 15 8 E 1026,8 16 -
23.01.2020 00:00:00 3,3 -8,9 16 9 E 1027,1 16 -
22.01.2020 23:00:00 2,8 -9,4 15 8 E 1027,2 16 -
22.01.2020 22:00:00 3,3 -10,6 15 8 E 1027,4 16 -
22.01.2020 21:00:00 3,3 -10,0 13 7 E 1027,2 16 -
22.01.2020 20:00:00 4,4 -10,6 9 5 E 1027,0 16 -
22.01.2020 19:00:00 4,4 -11,1 5 3 ENE 1026,7 16 -
22.01.2020 18:00:00 6,1 -12,2 5 3 ESE 1026,7 16 -
22.01.2020 17:00:00 7,8 -12,2 11 6 ENE 1026,0 16 -
22.01.2020 16:00:00 8,3 -11,7 13 7 E 1026,1 16 -
22.01.2020 15:00:00 7,8 -11,1 13 7 ESE 1026,7 16 -
22.01.2020 14:00:00 6,1 -10,6 13 7 E 1027,0 16 -
22.01.2020 13:00:00 5,6 -11,1 16 9 E 1028,0 16 -
22.01.2020 12:00:00 3,9 -11,1 21 11 E 1028,9 16 -
22.01.2020 11:00:00 2,8 -10,0 18 10 ENE 1029,9 16 -
22.01.2020 10:00:00 0,0 -9,4 21 11 E 1030,2 16 -
22.01.2020 09:00:00 -0,6 -10,6 18 10 E 1029,4 16 -
22.01.2020 08:00:00 -2,2 -11,7 11 6 ENE 1029,3 16 -
22.01.2020 07:00:00 -3,3 -9,4 9 5 ENE 1029,1 16 -
22.01.2020 06:00:00 -4,4 -8,9 0 0 N 1029,0 16 -
22.01.2020 05:00:00 -3,9 -8,9 11 6 N 1028,1 16 -
22.01.2020 04:00:00 -3,9 -8,9 5 3 NNE 1028,9 16 -
22.01.2020 03:00:00 -3,3 -8,9 5 3 SSE 1029,2 16 -

tt = temperature
td = dewpoint
ff = wind speed
dd = wind direction
ppp = reduced air pressure
vv = visibility
rr = precipitation

Next stations